Simultaneous Nadir Overpasses (SNOs) Predictions

Prediction of SNOs between GOES-16 and AQUA Satellite Orbit:

Table of predicted SNOs for the next 14.0 days since TLE Epoch: 2/2/2018
Index Date Time (GOES-16) GOES-16 Lat,Lon AQUA Lat,Lon Distance(km) Time Diff (sec)
1 02/03/2018 06:17:45 0.03, -75.16 -0.86, -70.90 484.39 80
2 02/03/2018 18:39:09 -0.03, -75.18 -0.24, -76.09 104.00 80
3 02/05/2018 18:29:39 -0.03, -75.20 0.39, -73.14 233.99 80
4 02/06/2018 06:50:55 0.03, -75.19 0.67, -78.30 353.00 80
5 02/08/2018 06:38:44 0.03, -75.22 0.09, -75.33 14.64 80
6 02/10/2018 06:23:54 0.04, -75.24 -0.55, -72.38 324.88 80
7 02/10/2018 18:45:19 -0.04, -75.26 -0.54, -77.58 263.37 80
8 02/12/2018 18:35:49 -0.05, -75.29 0.11, -74.62 76.52 80
9 02/14/2018 18:23:39 -0.05, -75.33 0.76, -71.67 416.93 80
10 02/15/2018 06:44:54 0.05, -75.33 0.37, -76.82 169.11 80




NCC Satellite Simultaneous Nadir Overpasses (SNOs) Prediction Service
